Date String (YYYY-MM-DD hh:mm:ss) UTC,Instrument flags,Ambient pressure (hPa),Sample flow (lpm),Bypass flow (lpm),Sample temperature (°C),Ambient temperature (°C),ASC tube jacket temperature (°C),LED temperature (°C),Box temperature (°C),Sample RH (%),Span deviation,Mass concentration (μg/m³),Mass concentration (μg/m³),Mass concentration (μg/m³)
DateTimeUTC,F1_M11,P_M11,Q1_M11,Q2_M11,T1_M11,T2_M11,T3_M11,T4_M11,T5_M11,U1_M11,ZSPAN_M11,X0_M11,X2_M11,X1_M11
2022-08-29 20:00:00,,0830.4,5.01,0.00,29.3,27.6,00.0,38.0,31.2,24.1,0000.0,0016.62,0007.03,0005.64
2022-08-29 20:01:00,,0830.4,5.00,0.00,29.4,27.9,00.0,38.0,31.3,23.7,0000.0,0017.85,0007.02,0005.63
2022-08-29 20:02:00,,0830.4,5.01,0.00,29.4,28.1,00.0,38.0,31.3,23.7,0000.0,0019.81,0007.02,0005.64
2022-08-29 20:03:00,,0830.3,4.99,0.00,29.4,28.3,00.0,38.1,31.4,23.4,0000.0,0020.08,0007.01,0005.64
2022-08-29 20:04:00,,0830.4,5.00,0.00,29.5,28.4,00.0,38.1,31.4,23.3,0000.0,0019.67,0007.00,0005.64
2022-08-29 20:05:00,,0830.4,5.00,0.00,29.5,28.3,00.0,38.1,31.5,23.3,0000.0,0020.10,0006.98,0005.63
2022-08-29 20:06:00,,0830.4,5.01,0.00,29.5,27.2,00.0,38.1,31.4,23.3,0000.0,0020.56,0006.97,0005.63
2022-08-29 20:07:00,,0830.5,5.00,0.00,29.5,26.4,00.0,38.1,31.3,23.3,0000.0,0020.59,0007.00,0005.65
2022-08-29 20:08:00,,0830.4,5.00,0.00,29.4,26.5,00.0,38.0,31.2,23.5,0000.0,0021.07,0007.05,0005.68
2022-08-29 20:09:00,,0830.5,5.00,0.00,29.3,26.7,00.0,38.0,31.1,23.7,0000.0,0021.47,0007.05,0005.69
2022-08-29 20:10:00,,0830.4,5.00,0.00,29.3,27.1,00.0,38.0,31.1,23.8,0000.0,0022.02,0007.13,0005.69
2022-08-29 20:11:00,,0830.5,4.99,0.00,29.3,27.4,00.0,38.0,31.1,23.9,0000.0,0021.90,0007.16,0005.70
2022-08-29 20:12:00,,0830.5,5.00,0.00,29.3,27.7,00.0,38.0,31.2,23.8,0000.0,0021.13,0007.17,0005.71
2022-08-29 20:13:00,,0830.5,5.00,0.00,29.4,27.9,00.0,38.0,31.2,23.8,0000.0,0019.51,0007.16,0005.73
2022-08-29 20:14:00,,0830.5,5.01,0.00,29.4,28.1,00.0,38.0,31.3,23.6,0000.0,0019.08,0007.14,0005.74
2022-08-29 20:15:00,,0830.5,5.02,0.00,29.4,28.3,00.0,38.0,31.4,23.6,0000.0,0018.82,0007.13,0005.75
2022-08-29 20:16:00,,0830.4,4.98,0.00,29.5,28.5,00.0,38.1,31.4,23.5,0000.0,0018.24,0007.15,0005.75
2022-08-29 20:17:00,,0830.4,5.01,0.00,29.5,28.5,00.0,38.1,31.5,23.6,0000.0,0017.55,0007.18,0005.76
2022-08-29 20:18:00,,0830.4,5.01,0.00,29.5,27.7,00.0,38.1,31.4,23.4,0000.0,0017.81,0007.17,0005.76
2022-08-29 20:19:00,,0830.4,5.00,0.00,29.5,26.6,00.0,38.1,31.3,23.1,0000.0,0017.83,0007.15,0005.77
2022-08-29 20:20:00,,0830.4,5.00,0.00,29.4,26.5,00.0,38.0,31.2,23.2,0000.0,0017.88,0007.15,0005.77
2022-08-29 20:21:00,,0830.5,5.00,0.00,29.4,26.8,00.0,38.0,31.1,23.4,0000.0,0017.73,0007.09,0005.79
2022-08-29 20:22:00,,0830.4,4.99,0.00,29.3,27.0,00.0,38.0,31.0,23.8,0000.0,0017.94,0007.12,0005.80
2022-08-29 20:23:00,,0830.4,5.01,0.00,29.3,27.3,00.0,38.0,31.1,23.9,0000.0,0017.61,0007.15,0005.79
2022-08-29 20:24:00,,0830.4,5.00,0.00,29.3,27.6,00.0,38.0,31.2,24.1,0000.0,0016.96,0007.20,0005.78
2022-08-29 20:25:00,,0830.4,5.00,0.00,29.4,27.9,00.0,38.0,31.3,23.9,0000.0,0016.85,0007.22,0005.78
2022-08-29 20:26:00,,0830.4,5.01,0.00,29.4,28.1,00.0,38.0,31.3,24.0,0000.0,0017.90,0007.25,0005.80
2022-08-29 20:27:00,,0830.4,4.99,0.00,29.4,28.3,00.0,38.1,31.4,24.2,0000.0,0018.52,0007.27,0005.83
2022-08-29 20:28:00,,0830.4,5.00,0.00,29.5,28.5,00.0,38.1,31.5,24.3,0000.0,0019.00,0007.27,0005.84
2022-08-29 20:29:00,,0830.4,5.01,0.00,29.5,27.8,00.0,38.1,31.4,24.1,0000.0,0019.97,0007.29,0005.86
2022-08-29 20:30:00,,0830.4,4.99,0.00,29.5,26.6,00.0,38.1,31.3,24.4,0000.0,0020.24,0007.30,0005.86
2022-08-29 20:31:00,,0830.3,5.00,0.00,29.4,26.4,00.0,38.0,31.3,24.4,0000.0,0020.91,0007.29,0005.85
2022-08-29 20:32:00,,0830.3,5.00,0.00,29.4,26.7,00.0,38.0,31.2,24.6,0000.0,0020.87,0007.33,0005.86
2022-08-29 20:33:00,,0830.3,5.01,0.00,29.3,27.0,00.0,38.0,31.1,24.6,0000.0,0021.13,0007.32,0005.86
2022-08-29 20:34:00,,0830.4,5.00,0.00,29.3,27.3,00.0,38.0,31.1,24.7,0000.0,0022.05,0007.34,0005.87
2022-08-29 20:35:00,,0830.4,5.01,0.00,29.3,27.6,00.0,38.0,31.2,24.4,0000.0,0022.64,0007.32,0005.87
2022-08-29 20:36:00,,0830.3,5.01,0.00,29.4,27.8,00.0,38.0,31.2,24.4,0000.0,0023.10,0007.35,0005.88
2022-08-29 20:37:00,,0830.3,4.98,0.00,29.4,28.1,00.0,38.0,31.3,24.5,0000.0,0022.97,0007.39,0005.87
2022-08-29 20:38:00,,0830.4,5.00,0.00,29.4,28.3,00.0,38.0,31.4,24.4,0000.0,0022.75,0007.37,0005.86
2022-08-29 20:39:00,,0830.3,5.00,0.00,29.5,28.5,00.0,38.1,31.4,24.3,0000.0,0021.88,0007.37,0005.86
2022-08-29 20:40:00,,0830.4,5.00,0.00,29.5,28.1,00.0,38.1,31.4,24.3,0000.0,0020.83,0007.34,0005.85
2022-08-29 20:41:00,,0830.4,5.00,0.00,29.5,26.8,00.0,38.1,31.3,24.1,0000.0,0020.71,0007.39,0005.87
2022-08-29 20:42:00,,0830.3,5.00,0.00,29.4,26.4,00.0,38.0,31.2,24.1,0000.0,0019.74,0007.42,0005.88
2022-08-29 20:43:00,,0830.4,5.01,0.00,29.4,26.6,00.0,38.0,31.2,24.3,0000.0,0019.43,0007.34,0005.88
2022-08-29 20:44:00,,0830.4,5.00,0.00,29.3,26.9,00.0,38.0,31.0,24.5,0000.0,0019.55,0007.32,0005.88
2022-08-29 20:45:00,,0830.4,5.01,0.00,29.3,27.2,00.0,38.0,31.0,24.6,0000.0,0019.26,0007.31,0005.89
2022-08-29 20:46:00,,0830.4,4.99,0.00,29.3,27.5,00.0,38.0,31.1,24.5,0000.0,0019.50,0007.34,0005.90
2022-08-29 20:47:00,,0830.3,4.99,0.00,29.3,27.8,00.0,38.0,31.2,24.4,0000.0,0019.98,0007.34,0005.90
2022-08-29 20:48:00,,0830.3,5.00,0.00,29.4,28.0,00.0,38.0,31.3,24.4,0000.0,0019.43,0007.31,0005.89
2022-08-29 20:49:00,,0830.3,5.01,0.00,29.4,28.3,00.0,38.0,31.4,24.4,0000.0,0018.88,0007.33,0005.90
2022-08-29 20:50:00,,0830.3,5.00,0.00,29.5,28.4,00.0,38.0,31.4,24.2,0000.0,0018.95,0007.37,0005.90
2022-08-29 20:51:00,,0830.3,4.98,0.00,29.5,28.2,00.0,38.1,31.5,24.3,0000.0,0019.75,0007.36,0005.90
2022-08-29 20:52:00,,0830.3,5.00,0.00,29.5,27.1,00.0,38.1,31.4,24.4,0000.0,0020.23,0007.36,0005.91
2022-08-29 20:53:00,,0830.3,5.01,0.00,29.4,26.4,00.0,38.0,31.3,24.3,0000.0,0021.10,0007.32,0005.93
2022-08-29 20:54:00,,0830.2,5.00,0.00,29.4,26.6,00.0,38.0,31.2,24.3,0000.0,0022.13,0007.35,0005.94
2022-08-29 20:55:00,,0830.3,5.00,0.00,29.3,26.9,00.0,38.0,31.1,24.5,0000.0,0023.12,0007.37,0005.95
2022-08-29 20:56:00,,0830.3,4.99,0.00,29.3,27.2,00.0,38.0,31.1,24.4,0000.0,0022.74,0007.41,0005.97
2022-08-29 20:57:00,,0830.3,5.00,0.00,29.3,27.5,00.0,38.0,31.1,24.2,0000.0,0022.11,0007.40,0005.99
2022-08-29 20:58:00,,0830.3,5.01,0.00,29.3,27.8,00.0,38.0,31.2,24.2,0000.0,0021.30,0007.37,0005.99
2022-08-29 20:59:00,,0830.2,5.01,0.00,29.4,28.0,00.0,38.0,31.3,24.3,0000.0,0021.55,0007.38,0006.02
